Theta_e
322 324 322 325 322 321 319 318 318 316 314 314 314 313 312 312 312 313 313 325 328 332 333 334 331 328 329 329 330 330 331 329 329 331 333 332 331 333 335 336 339 342 344
324 323 322 324 321 321 320 319 315 314 313 312 313 312 312 311 312 312 314 314 326 329 329 329 329 329 329 330 331 331 331 331 330 330 330 332 333 332 332 333 335 339 341
321 321 321 323 322 320 319 317 315 314 312 312 310 311 311 311 312 312 313 314 317 324 325 325 326 327 327 328 329 330 332 335 332 332 333 333 334 336 334 333 332 335 337
325 324 322 320 320 318 316 314 313 311 310 308 307 308 308 309 310 310 311 316 318 317 320 324 325 327 327 327 328 331 332 332 332 331 332 332 333 333 335 335 335 336 336
326 321 319 320 319 316 315 313 311 309 307 307 307 307 307 307 309 312 312 314 315 315 314 320 324 323 325 328 331 331 331 331 331 331 331 331 330 333 335 336 336 337 338
324 319 319 318 317 315 312 312 310 309 307 307 309 309 308 307 308 311 311 316 315 312 312 312 316 316 327 327 328 329 330 330 330 330 330 330 330 330 331 333 335 337 338
322 318 317 315 314 311 310 310 309 307 306 308 305 306 305 306 308 310 311 311 311 311 314 312 313 319 320 325 326 325 327 327 328 329 329 328 329 330 331 331 331 332 335
320 320 316 315 313 310 308 308 307 306 306 307 303 302 298 300 306 307 307 309 312 313 314 315 320 318 318 317 320 323 323 323 325 325 324 324 326 328 330 329 330 331 332
322 322 318 315 311 310 307 307 307 305 304 306 306 302 297 295 301 303 305 307 308 308 310 313 318 319 318 317 317 319 321 320 322 323 322 324 326 327 327 327 328 329 331
318 320 318 312 310 310 308 308 310 308 305 303 304 306 303 302 298 296 301 303 306 307 309 311 316 317 317 315 317 320 319 319 319 320 321 323 325 326 327 327 328 330 332
316 315 314 311 312 310 308 309 308 308 306 304 302 302 300 301 300 297 295 300 302 306 310 314 314 313 313 311 311 314 317 316 316 316 317 319 321 322 324 326 327 328 332
311 312 312 312 311 309 308 308 308 307 306 305 304 303 300 299 299 297 295 299 298 303 310 311 311 311 310 311 314 316 316 315 314 314 314 315 317 319 320 322 324 326 329
310 310 312 313 309 309 309 309 307 307 306 305 304 303 303 301 303 299 298 300 301 304 307 308 309 309 309 309 310 313 314 314 313 312 311 312 313 315 317 318 320 321 324
309 312 312 311 311 314 313 308 307 307 309 306 305 304 303 304 304 303 299 299 301 300 303 304 308 307 308 307 311 311 307 313 312 311 310 310 310 311 312 313 315 315 317
313 312 313 311 309 310 312 308 309 306 309 306 304 303 303 303 304 302 301 301 301 298 297 304 303 306 306 305 308 304 306 312 312 310 310 309 309 309 309 310 311 312 312
310 310 310 310 309 309 309 311 310 310 307 305 305 303 302 303 302 301 301 301 303 303 300 305 304 305 305 305 306 303 305 308 310 309 310 308 308 307 307 307 307 308 309
310 310 311 311 311 312 312 310 309 308 306 305 304 304 303 303 302 301 300 299 300 303 298 299 304 304 302 301 302 303 304 304 305 308 309 308 307 306 306 305 305 305 305
309 310 310 310 310 310 310 309 305 306 305 304 304 304 303 307 305 300 298 297 298 299 299 300 303 302 301 302 301 301 302 303 303 307 306 307 306 305 305 304 302 302 301
308 309 308 308 308 309 306 304 305 303 304 304 304 304 303 302 301 300 299 298 301 306 304 304 301 303 302 302 301 301 300 300 302 305 304 304 305 304 304 304 302 301 300
307 308 307 307 304 302 302 301 301 300 301 303 304 303 303 303 300 299 299 298 299 301 304 302 301 302 302 302 301 298 296 298 297 301 301 303 303 303 303 304 304 302 300
308 307 304 304 302 302 301 299 298 298 298 300 304 306 303 307 309 306 304 303 303 302 303 302 301 301 301 300 299 299 296 297 296 298 296 297 298 296 298 299 302 303 301
303 303 302 300 299 302 300 301 300 296 297 300 304 302 303 307 306 307 308 309 308 302 302 302 302 301 300 301 298 297 298 296 292 298 296 294 297 295 295 296 301 301 301
299 298 298 300 300 301 299 299 300 297 298 304 299 298 301 305 302 304 307 306 307 307 306 304 302 302 300 301 298 296 295 295 294 297 297 294 298 295 297 298 300 300 300
299 299 300 300 301 301 299 299 301 305 304 300 298 298 301 302 302 304 304 303 303 304 305 305 303 302 301 301 300 298 296 296 296 296 297 294 297 296 296 296 300 301 300
299 299 300 299 300 299 298 298 301 301 299 298 301 301 300 300 299 301 303 303 303 303 304 304 302 301 300 301 303 301 296 294 291 293 296 299 299 297 297 297 298 301 300
299 301 301 301 301 300 298 298 299 300 300 300 300 300 300 299 297 299 303 302 301 301 304 302 302 302 303 303 305 303 298 294 295 295 298 297 298 297 294 298 296 296 295
Wind_Speed
4 4 4 4 3 3 4 5 5 4 5 6 7 7 6 8 7 4 3 18 21 18 14 12 9 7 11 12 13 14 16 15 16 18 16 18 19 19 19 20 18 18 17
4 4 4 4 4 4 4 5 4 4 4 5 7 7 8 6 8 8 7 6 19 12 11 11 11 10 13 15 15 16 17 16 15 16 17 17 18 19 21 22 22 21 19
4 5 4 4 4 4 6 5 4 4 4 5 6 6 6 7 8 10 9 7 4 6 8 9 11 12 13 13 16 18 19 19 19 16 15 16 18 20 23 23 24 24 22
4 6 4 4 3 4 4 3 3 4 4 4 5 5 5 5 7 9 7 7 4 3 6 15 16 17 18 17 19 19 19 17 16 14 14 14 17 21 23 26 26 24 23
6 5 3 3 4 3 3 2 2 2 3 4 5 4 5 5 7 7 6 5 5 4 3 10 9 14 16 18 21 20 18 17 16 15 15 13 16 20 20 22 25 25 24
4 4 2 3 4 4 4 2 2 3 2 4 5 5 6 4 4 7 7 7 5 5 6 6 5 5 16 17 16 16 17 19 18 18 17 17 19 20 19 19 20 24 25
4 2 3 3 3 2 1 1 2 3 3 3 3 5 4 4 4 7 5 6 5 5 4 5 4 3 6 16 17 17 18 20 20 20 20 20 21 22 21 19 19 20 21
4 3 4 2 1 2 4 2 3 3 3 2 2 2 4 5 6 7 6 6 7 5 5 6 5 6 5 5 11 17 19 21 21 22 22 23 22 22 21 22 23 23 25
5 4 5 4 2 1 2 1 2 2 3 4 3 1 3 2 6 3 4 6 8 5 4 5 7 5 5 5 7 10 18 19 22 22 21 21 20 20 21 21 23 26 30
6 5 6 5 4 2 2 1 1 2 0 4 3 2 2 3 1 5 3 4 8 8 6 4 6 8 8 6 11 17 18 19 20 21 22 22 22 22 21 22 23 25 29
3 5 6 6 4 2 2 2 3 4 2 1 1 2 2 1 2 1 4 7 5 5 4 6 5 5 7 6 5 9 18 19 20 20 21 22 23 23 23 22 25 26 34
1 3 4 4 4 3 2 2 3 4 3 2 2 2 1 2 2 0 2 5 4 4 3 4 4 4 4 5 11 16 19 17 18 19 19 21 22 22 23 24 26 31 31
2 5 4 4 2 3 4 3 3 3 3 2 2 2 1 2 1 1 0 3 3 3 1 2 3 3 4 5 7 15 17 18 17 17 18 20 21 22 23 24 26 29 32
5 5 5 4 4 4 4 4 3 2 4 3 4 3 1 3 2 2 2 2 4 2 1 3 1 3 4 5 9 14 8 18 15 16 18 19 20 20 22 23 24 26 27
5 4 4 3 4 4 3 3 3 3 3 2 3 2 2 2 2 1 1 2 2 2 2 2 1 3 3 3 7 6 7 18 17 18 17 18 19 21 21 22 23 24 25
9 8 6 7 6 5 4 3 1 2 1 2 2 1 2 1 1 1 2 2 1 2 3 2 1 2 3 3 7 5 7 12 16 19 19 19 20 20 21 21 22 22 24
6 6 8 6 4 6 6 5 0 2 1 2 3 1 3 0 0 1 2 2 2 1 2 3 1 2 3 3 4 5 5 6 6 17 18 19 19 19 21 21 21 21 22
5 6 5 7 8 8 6 6 6 6 6 6 5 3 3 1 2 2 2 4 1 2 2 4 1 1 1 2 2 3 4 4 6 13 16 17 17 20 21 21 19 20 19
8 8 8 7 5 6 7 7 7 6 6 6 5 3 2 1 3 2 2 4 3 2 2 2 1 1 1 1 1 2 4 5 5 12 10 12 14 16 21 22 19 18 18
7 8 7 9 8 7 8 8 8 7 7 6 5 2 3 3 1 2 2 3 3 2 2 1 1 1 1 1 1 2 3 3 4 3 6 8 10 14 15 18 21 18 15
6 7 7 6 6 6 7 6 5 5 6 6 6 3 3 6 6 1 2 3 3 2 2 1 2 1 2 2 1 2 1 2 2 3 3 3 3 4 6 9 13 19 16
7 7 7 6 6 4 11 12 8 5 5 5 5 6 6 8 7 8 8 6 3 1 2 1 2 1 2 2 2 3 1 2 3 2 3 4 3 4 4 4 10 12 14
5 6 5 5 5 4 12 13 12 4 4 4 6 5 5 5 7 4 7 8 7 4 1 1 3 3 3 3 2 3 3 2 3 3 3 3 2 1 2 3 8 8 8
5 4 4 4 4 4 12 13 13 6 6 6 5 6 5 5 6 3 5 5 6 7 5 4 4 3 3 3 3 3 3 1 3 4 3 2 2 3 2 2 6 6 7
4 4 3 5 5 4 13 13 7 6 6 6 7 6 5 5 8 7 5 6 6 6 6 8 6 5 4 2 4 2 1 1 3 3 3 2 3 1 1 2 3 6 7
3 3 4 5 9 5 11 12 8 4 7 5 6 6 11 6 7 8 5 4 5 3 2 3 3 3 2 1 0 3 2 1 2 3 3 2 2 2 2 2 1 3 3
Wind_Direction
69 55 29 38 54 34 23 9 31 19 357 1 344 349 353 339 329 315 301 318 323 330 3 354 355 319 310 306 303 304 310 307 302 295 292 287 285 284 283 278 275 274 268
55 50 39 41 21 24 357 25 17 14 13 348 343 342 330 338 320 318 307 314 313 360 33 27 14 344 325 315 307 307 298 299 294 287 287 286 287 283 280 277 273 269 269
69 65 40 25 31 11 20 20 16 19 1 353 336 335 315 322 316 317 318 295 313 352 12 355 338 334 328 317 311 305 315 293 294 286 284 288 288 287 279 272 270 269 268
56 56 45 20 18 25 33 4 8 3 2 347 319 304 306 315 300 297 290 308 299 339 353 353 349 348 332 330 323 320 327 332 321 319 307 300 304 298 288 274 265 259 257
82 72 37 7 41 39 12 345 6 23 349 305 299 305 295 299 310 317 288 313 324 27 348 339 340 333 338 339 339 337 337 339 337 324 320 312 318 315 298 293 267 260 254
99 90 46 58 39 22 348 3 8 331 312 297 305 312 293 288 295 354 340 346 345 2 355 340 321 348 3 352 357 0 356 350 342 336 337 327 313 316 315 309 293 266 259
107 115 131 61 37 2 292 346 337 4 322 313 328 315 296 286 38 351 337 333 341 336 343 357 1 21 11 12 9 6 4 355 352 345 353 341 331 321 313 320 313 301 282
189 210 160 122 69 351 343 360 23 345 301 314 270 265 323 333 3 331 347 338 348 338 20 3 44 41 17 359 9 12 8 356 353 349 346 339 328 329 322 308 302 300 297
267 257 169 162 179 213 285 315 356 32 305 308 334 135 350 336 324 335 338 340 347 345 8 10 20 39 37 6 1 11 16 3 357 352 346 341 340 337 332 326 317 303 287
284 282 185 160 178 226 271 302 349 295 199 293 344 3 111 190 344 323 316 347 339 349 15 20 22 15 21 10 9 3 15 9 1 356 354 357 357 355 350 349 333 322 286
329 133 158 173 177 218 249 326 319 316 309 286 334 315 2 357 107 248 308 332 340 336 34 33 28 21 13 352 347 1 15 13 6 2 360 1 3 360 358 356 360 351 356
242 184 186 204 180 201 232 250 269 291 274 301 258 336 341 296 277 125 300 328 282 317 28 42 18 14 1 352 356 16 7 12 10 7 6 4 4 4 4 4 10 10 7
314 264 241 236 216 232 233 220 237 277 272 249 237 270 290 305 328 227 313 291 292 297 36 59 359 9 12 356 4 15 1 8 16 14 10 9 8 8 12 13 18 24 22
290 291 279 261 259 256 252 200 227 231 241 236 257 240 239 282 268 205 190 237 315 290 338 297 352 12 12 358 7 13 350 359 25 27 23 18 16 16 17 18 25 32 33
305 303 323 309 307 298 271 203 214 232 229 226 278 235 213 263 314 271 245 220 218 306 298 226 310 32 8 360 5 4 356 10 39 33 29 26 23 24 25 26 27 30 37
327 327 319 336 296 289 272 199 103 287 112 261 277 358 324 249 61 353 326 336 301 233 288 231 200 11 12 4 6 8 3 10 14 29 28 32 29 27 29 31 33 33 36
318 350 346 316 9 31 10 30 75 279 12 295 306 307 320 97 87 360 22 343 335 351 277 284 165 39 38 7 8 358 2 4 350 31 27 31 32 30 30 30 34 37 39
360 2 357 2 54 64 6 357 29 24 26 12 344 355 348 96 9 40 16 346 308 296 250 298 87 73 45 31 359 4 0 14 2 26 26 30 33 37 37 36 36 39 41
26 1 11 12 42 59 64 15 21 19 13 9 2 18 335 18 9 13 355 343 325 349 339 308 91 206 56 2 347 16 14 7 10 18 14 15 38 42 42 43 45 43 42
26 23 35 31 54 49 39 20 8 358 352 341 334 27 32 11 359 14 345 315 326 341 344 57 355 316 268 199 67 43 25 17 16 343 1 14 36 40 41 40 45 52 51
44 57 46 41 34 32 15 4 351 333 319 320 321 338 12 25 26 305 283 307 340 359 351 53 358 335 8 342 333 154 90 349 343 3 325 338 348 353 14 13 32 39 45
36 46 42 30 22 19 358 353 341 316 309 315 343 21 11 39 20 5 349 350 256 87 357 70 334 3 11 47 35 19 115 37 342 22 1 310 360 352 336 340 23 29 32
31 32 28 29 3 10 349 334 333 299 313 51 48 22 0 25 13 358 41 44 54 80 87 15 38 6 51 45 68 52 47 113 236 286 359 294 232 249 256 319 346 359 15
4 10 1 3 354 21 354 343 354 67 66 54 48 23 356 3 357 34 61 57 56 46 43 62 74 64 83 81 101 153 174 245 290 271 185 263 255 258 212 271 294 329 359
351 359 355 1 4 26 1 358 18 47 58 44 42 28 23 18 2 52 59 66 70 60 52 75 88 96 99 144 200 176 226 324 301 277 213 241 276 246 189 254 247 289 326
345 355 356 46 30 12 10 7 25 50 50 40 34 29 31 39 41 50 65 67 67 19 77 36 14 26 93 78 33 183 169 82 286 325 274 358 314 169 37 332 275 268 295